Voltar ao catálogo

GEESAT 5-09

AtivoComunicaçõesLEO
NORAD 65558·PAYLOAD·🇨🇳 China

Lançado Sep 8, 2025 de Yellow Sea Launch Area

Loading…

Próximas Passagens (próximas 24 horas)

TLE

AtualizadoSource: Space-Track

Época: Sep 14, 2026, 15:03 UTC

1 65558U 25201J   26257.62719294  .00001176  00000-0  16537-3 0  9991
2 65558  49.9828 343.8174 0008686 251.6056 108.3939 14.84377009 55088

Acompanhe GEESAT 5-09 em tempo real com AllMySat

Download on the App Store